{"data":{"norad_id":44449,"intl_designator":"2019-045A","name":"YAOGAN-30 06A","alt_names":[],"object_type":"PAYLOAD","status":"ACTIVE","operator":null,"country":"PRC","launch_date":"2019-07-26","launch_site_code":"XICLF","launch_vehicle":null,"mission":null,"orbit_class":"UNKNOWN","rcs_meters":null,"size_class":null,"mass_kg":null,"dimensions":null,"purposes":[],"wikipedia_slug":null,"has_3d_model":false,"image_url":null,"decayed_at":null,"tle_current":{"epoch":"2026-09-20T00:53:39.346944Z","epoch_age_seconds":101590,"freshness":"FRESH","line1":"1 44449U 19045A   26263.03726096  .00001616  00000+0  11960-3 0  9999","line2":"2 44449  34.9925 111.7952 0003663  11.8223 348.2570 15.03069462390894","mean_motion":15.03069462,"eccentricity":0.0003663,"inclination_deg":34.9925,"raan_deg":111.7952,"arg_perigee_deg":11.8223,"mean_anomaly_deg":348.257,"bstar":0.0001196,"rev_number":39089,"period_min":95.803955599226,"perigee_km":554.8975200321,"apogee_km":559.9785222926,"semimajor_km":6935.5750211623,"source":"CELESTRAK","updated_at":"2026-09-20T09:00:14.527651Z"}}}